{"data":{"norad_id":52342,"intl_designator":"2022-045M","name":"STARLINK-3850","alt_names":[],"object_type":"PAYLOAD","status":"ACTIVE","operator":null,"country":"US","launch_date":"2022-04-29","launch_site_code":"AFETR","launch_vehicle":null,"mission":null,"orbit_class":"UNKNOWN","rcs_meters":null,"size_class":null,"mass_kg":null,"dimensions":null,"purposes":["comms"],"wikipedia_slug":null,"has_3d_model":false,"image_url":null,"decayed_at":null,"tle_current":{"epoch":"2026-09-19T22:33:01.831392Z","epoch_age_seconds":108115,"freshness":"FRESH","line1":"1 52342U 22045M   26262.93960453  .00000863  00000+0  36688-4 0  9997","line2":"2 52342  53.1605  38.1246 0001160  88.1559 271.9577 15.34389188245229","mean_motion":15.34389188,"eccentricity":0.000116,"inclination_deg":53.1605,"raan_deg":38.1246,"arg_perigee_deg":88.1559,"mean_anomaly_deg":271.9577,"bstar":3.6688e-5,"rev_number":24522,"period_min":93.848419375072,"perigee_km":461.94183474272,"apogee_km":463.52891713394,"semimajor_km":6840.8723759383,"source":"CELESTRAK","updated_at":"2026-09-20T09:00:40.022996Z"}}}